De Queen, AR

12:40 PM CST on February 07, 2016 (GMT -0600)
Helms Sevier County

Weather History for KDEQ - December, 2012

Change the Weather History Date:

Wednesday, December 26, 2012

  Actual Average Record
Temperature  
Mean Temperature 28 °F 42 °F  
Max Temperature 34 °F 54 °F 77 °F (2015)
Min Temperature 21 °F 30 °F 4 °F (1983)
Degree Days  
Heating Degree Days 38 23  
Month to date heating degree days 567  
Since 1 July heating degree days 1093  
Cooling Degree Days 0 0  
Month to date cooling degree days 0  
Year to date cooling degree days 1941  
Moisture  
Dew Point 23 °F    
Average Humidity 86    
Maximum Humidity 96    
Minimum Humidity 64    
Precipitation  
Precipitation 0.00 in 0.17 in 2.75 in (1987)
Month to date precipitation 3.50  
Year to date precipitation 48.13  
Snow  
Snow 0.00 in - - ()
Month to date snowfall  
Since 1 July snowfall  
Snow Depth -    
Sea Level Pressure  
Sea Level Pressure 30.13 in    
Wind  
Wind Speed 7 mph (NW)    
Max Wind Speed 16 mph    
Max Gust Speed -    
Visibility 6 miles    
Events Fog    
T = Trace of Precipitation, MM = Missing Value Source: NWS Daily Summary

Daily Weather History Graph

Daily Weather History Graph

Search for Another Location

Airport or City:

Trip Planner

Search our weather history database for the weather conditions in past years. The results will help you decide how hot, cold, wet, or windy it might be!

Date:

Astronomy

Dec. 26, 2012 Rise Set
Actual Time 7:21 AM CST 5:15 PM CST
Civil Twilight 6:53 AM CST 5:43 PM CST
Nautical Twilight 6:22 AM CST 6:14 PM CST
Astronomical Twilight 5:52 AM CST 6:45 PM CST
Moon 4:08 PM CST (12/26) 5:47 AM CST (12/26)
Length of Visible Light 10h 49m
Length of Day
9h 53m
Waxing Gibbous, 97% of the Moon is Illuminated
Dec 26
Waxing Gibbous
Dec 28
Full
Jan 4
Last Quarter
Jan 11
New
Jan 18
First Quarter

Hourly Weather History & Observations

Time (CST) Temp. Windchill Dew Point Humidity Pressure Visibility Wind Dir Wind Speed Gust Speed Precip Events Conditions
12:53 AM 32.0 °F 24.2 °F 28.0 °F 85% 29.98 in 9.0 mi WNW 9.2 mph - N/A   Unknown
1:53 AM 30.0 °F 18.7 °F 25.0 °F 82% 30.01 in 7.0 mi NW 16.1 mph - N/A   Unknown
2:53 AM 28.9 °F 19.8 °F 24.1 °F 82% 30.02 in 7.0 mi NW 10.4 mph - N/A   Unknown
3:53 AM 28.0 °F 20.8 °F 23.0 °F 81% 30.01 in 8.0 mi NW 6.9 mph - N/A   Unknown
4:53 AM 25.0 °F 19.3 °F 21.0 °F 85% 30.01 in 8.0 mi WNW 4.6 mph - N/A   Unknown
5:53 AM 24.1 °F 14.4 °F 19.9 °F 84% 30.06 in 9.0 mi West 9.2 mph - N/A   Unknown
6:53 AM 21.9 °F 13.4 °F 18.0 °F 85% 30.08 in 10.0 mi WNW 6.9 mph - N/A   Unknown
7:53 AM 23.0 °F 15.8 °F 19.0 °F 85% 30.11 in 10.0 mi WNW 5.8 mph - N/A   Unknown
8:53 AM 25.0 °F 19.3 °F 19.9 °F 81% 30.14 in 9.0 mi NW 4.6 mph - N/A   Clear
9:53 AM 28.9 °F 25.2 °F 21.0 °F 72% 30.16 in 10.0 mi NNE 3.5 mph - N/A   Clear
10:53 AM 32.0 °F 26.4 °F 21.0 °F 64% 30.21 in 10.0 mi NNE 5.8 mph - N/A   Clear
11:53 AM 30.0 °F 22.4 °F 24.1 °F 79% 30.19 in 10.0 mi West 8.1 mph - N/A   Partly Cloudy
12:53 PM 32.0 °F 24.8 °F 25.0 °F 75% 30.17 in 10.0 mi West 8.1 mph - N/A   Partly Cloudy
1:53 PM 34.0 °F 28.0 °F 26.1 °F 73% 30.16 in 10.0 mi West 6.9 mph - N/A   Scattered Clouds
2:53 PM 33.1 °F 26.9 °F 27.0 °F 78% 30.16 in 10.0 mi West 6.9 mph - N/A   Partly Cloudy
3:26 PM 34.0 °F 28.0 °F 27.0 °F 75% 30.16 in 10.0 mi West 6.9 mph - N/A   Mostly Cloudy
3:33 PM 34.0 °F 27.2 °F 27.0 °F 75% 30.16 in 10.0 mi WSW 8.1 mph - N/A   Scattered Clouds
3:53 PM 33.1 °F 25.5 °F 27.0 °F 78% 30.17 in 10.0 mi West 9.2 mph - N/A   Partly Cloudy
4:53 PM 32.0 °F 25.6 °F 27.0 °F 82% 30.18 in 10.0 mi WSW 6.9 mph - N/A   Partly Cloudy
5:53 PM 30.0 °F - 27.0 °F 88% 30.18 in 10.0 mi Calm Calm - N/A   Clear
6:53 PM 26.1 °F 21.9 °F 25.0 °F 96% 30.16 in 6.0 mi SE 3.5 mph - N/A   Clear
7:40 PM 23.0 °F 15.8 °F 21.9 °F 96% 30.15 in 2.0 mi ENE 5.8 mph - N/A   Clear
7:48 PM 23.0 °F 15.8 °F 21.2 °F 93% 30.15 in 3.0 mi ENE 5.8 mph - N/A   Partly Cloudy
7:53 PM 23.0 °F 18.4 °F 21.9 °F 96% 30.15 in 4.0 mi East 3.5 mph - N/A   Partly Cloudy
8:27 PM 26.1 °F - 25.0 °F 96% 30.15 in 2.5 mi Calm Calm - N/A   Clear
8:45 PM 24.1 °F - 21.9 °F 91% 30.16 in 6.0 mi Calm Calm - N/A   Clear
8:53 PM 24.1 °F 19.7 °F 23.0 °F 96% 30.17 in 4.0 mi SW 3.5 mph - N/A   Clear
9:53 PM 23.0 °F 18.4 °F 21.0 °F 92% 30.17 in 4.0 mi NE 3.5 mph - N/A   Clear
10:26 PM 21.9 °F 17.2 °F 19.9 °F 92% 30.15 in 2.5 mi East 3.5 mph - N/A   Partly Cloudy
10:29 PM 21.9 °F 17.2 °F 21.0 °F 96% 30.15 in 0.5 mi East 3.5 mph - N/A Fog Light Freezing Fog
10:37 PM 23.0 °F 18.4 °F 21.0 °F 92% 30.15 in 0.2 mi East 3.5 mph - N/A Fog Light Freezing Fog
10:48 PM 23.0 °F - 21.2 °F 93% 30.15 in 1.0 mi Calm Calm - N/A   Mist
10:53 PM 23.0 °F - 21.9 °F 96% 30.16 in 2.0 mi Calm Calm - N/A   Overcast
10:56 PM 23.0 °F - 21.9 °F 96% 30.15 in 0.8 mi Calm Calm - N/A   Mist
11:28 PM 21.9 °F - 19.9 °F 92% 30.15 in 2.0 mi Calm Calm - N/A   Scattered Clouds
11:39 PM 21.0 °F 16.2 °F 19.9 °F 96% 30.16 in 3.0 mi ESE 3.5 mph - N/A   Scattered Clouds
11:53 PM 21.9 °F - 21.0 °F 96% 30.17 in 4.0 mi Calm Calm - N/A   Mostly Cloudy